Location: Napa Soda Springs
(38.3907°N, 122.2794°W)
Time: 19:54:11
(UTC+00:00)

Cosmos 1697 Rocket - Pass Details

Date: 29 October 2020
Orbit: 831 x 845 km, 71.0° (Epoch: 24 November)

Event Time Altitude Azimuth Distance (km) Brightness Sun altitude
Exits shadow 12:32:07 32° 334° (NNW) 1,424 3.6 -24.2°
Maximum altitude 12:34:54 83° 249° (WSW) 854 2.5 -23.6°
Drops below altitude 10° 12:40:32 10° 162° (SSE) 2,456 5.3 -22.5°
Sets 12:42:58 0° 162° (SSE) 3,387 6.1 -22.1°
